Погода в Новоалександровке

Украина / Херсонская область     46°15′52″N   33°23′57″E
темп.,
°C
ветер,
м/с
пор.,
м/с
влажн.,
%
обл.,
%
осадки,
мм/ч
давл.,
гПа
погр.,
м
14 мая, пт
пт1400:00+12вюв369260 0.0 1009101
03:00+11юз22913 0.0 100916
06:00+11зюз2288100 0.0 100918
09:00+17ююз4657100 0.0 1009396
12:00+21юз5744100 0.0 1010782
15:00+21юз5747100 0.0 1010724
18:00+19юз56580 0.0 1011379
21:00+13зюз338211 0.0 101244
15 мая, сб
сб1500:00+13юз348632 0.0 101360
03:00+12юз33885 0.0 101333
06:00+13ю33897 0.0 101335
09:00+19юз4459100 0.0 1014515
12:00+22юз44444 0.0 10141076
15:00+24юз34426 0.0 10131517
18:00+23юз22440 0.0 1012985
21:00+17юз11672 0.0 101311
16 мая, вс
вс1600:00+15с227220 0.0 101217
03:00+14св347664 0.0 101240
06:00+14св3577100 0.0 101171
09:00+20св4657100 0.0 1011416
12:00+25всв454134 0.0 10101396
15:00+27всв453494 0.0 10081858
18:00+26всв3544100 0.0 1006403
21:00+18ююв127531 0.6 100612
17 мая, пн
пн1700:00+17всв1290100 2.1 100529
03:00+16с599680 4.9 1004206
06:00+16сз2597100 1.2 1004155
09:00+18сз2386100 3.2 1005362
12:00+23зюз565929 0.1 10061458
15:00+23юз885660 0.1 1006937
18:00+19зюз6962100 0.0 1007383
21:00+14юз48903 0.0 1009173
18 мая, вт
вт1800:00+14юз48955 0.0 1009180
03:00+14юз37960 0.0 1009158
06:00+14юз36960 0.0 1010143
09:00+20юз3463100 0.0 1011475
12:00+23юз574787 0.0 10111135
15:00+21юз7966100 0.1 1011535
18:00+21ююз710606 0.1 1010801
21:00+17ююз512745 0.1 1011325